Location: Unspecified
(0.0000°N, 0.0000°E)
Time: 08:04:20
(UTC+00:00)

Kosmos-648 - Pass Details

Date: 06 July 2022
Orbit: 1437 x 1489 km, 74.0° (Epoch: 16 August)

Event Time Altitude Azimuth Distance (km) Brightness Sun altitude
Rises 21:08:29 0° 327° (NNW) 4,603 ? -41.5°
Reaches altitude 10° 21:11:46 10° 318° (NW) 3,625 ? -42.2°
Maximum altitude 21:19:21 33° 258° (WSW) 2,308 ? -43.8°
Enters shadow 21:20:49 31° 241° (WSW) 2,370 ? -44.1°
